Theta_e
306 306 305 305 305 305 306 306 304 303 302 301 301 300 300 299 298 297 296 295 295 294 294 294 293 293 294 294 294 294 294 294 294 294 295 295 295 295 293 291 290 290
307 306 306 306 305 305 305 306 306 304 303 302 301 300 299 298 298 297 296 295 295 294 294 293 293 293 293 293 293 294 294 294 294 294 294 295 295 294 293 291 290 290
307 307 307 307 307 306 305 305 305 305 304 302 301 300 299 298 297 297 296 295 294 294 293 293 293 293 293 293 293 293 293 294 293 294 294 295 295 294 292 291 290 289
308 308 307 307 306 305 304 303 304 305 305 304 303 301 299 298 297 296 296 295 294 294 293 293 293 293 293 293 293 293 293 293 293 294 294 294 294 293 291 290 290 289
309 308 308 307 306 304 303 303 303 304 305 306 305 303 301 299 297 296 295 294 294 294 293 293 293 292 292 292 293 293 293 293 293 293 294 294 294 293 291 290 289 289
309 308 308 307 306 304 304 304 304 303 303 304 305 304 303 300 298 296 295 294 294 294 293 293 292 292 292 292 292 292 292 293 293 293 293 294 293 292 291 290 289 289
309 309 308 307 306 305 304 304 304 302 301 301 302 303 303 301 299 297 295 295 294 293 293 293 292 292 292 292 292 292 292 292 292 293 293 293 292 291 290 289 289 288
309 309 308 307 306 305 305 304 304 303 301 300 300 301 301 300 299 298 296 295 294 293 293 293 292 292 292 292 292 292 292 292 292 292 293 293 292 291 290 289 289 288
309 309 308 307 306 306 305 305 304 303 301 300 299 300 299 298 297 297 296 295 294 293 293 292 292 292 291 291 291 292 292 292 292 292 292 292 291 290 290 289 288 288
309 309 308 307 307 306 306 305 304 302 301 300 298 298 298 297 296 295 295 295 294 293 293 292 292 291 291 291 291 291 291 291 291 292 292 292 291 290 289 289 288 288
309 309 308 308 308 307 306 306 304 303 302 300 298 297 297 297 295 294 294 294 294 293 292 292 291 291 291 291 291 291 291 291 291 291 291 291 290 290 289 288 288 287
308 308 308 308 308 307 307 306 304 303 302 301 300 297 296 295 295 295 294 293 293 293 292 292 291 291 291 291 291 291 290 290 290 291 291 290 290 289 289 288 288 287
308 308 308 308 308 307 306 305 304 303 302 301 300 298 296 295 295 295 294 294 293 292 292 291 291 290 290 290 290 290 290 290 290 290 290 290 290 289 288 288 287 287
308 308 308 307 306 306 305 304 303 303 302 301 300 299 297 296 295 294 294 294 293 292 291 291 290 290 290 290 290 290 290 290 290 290 290 290 289 289 288 288 287 287
308 307 306 305 305 304 303 303 302 301 301 300 299 299 298 296 294 294 293 293 293 292 291 291 290 290 290 290 290 289 289 289 289 289 289 289 289 288 288 287 287 286
307 306 305 304 304 304 303 302 301 300 300 299 299 298 297 296 294 293 293 293 293 292 291 290 290 290 289 289 289 289 289 289 289 289 289 289 288 288 287 287 287 286
306 305 305 304 303 303 302 302 301 299 299 298 298 297 297 295 294 293 293 292 292 292 291 290 290 289 289 289 288 288 288 288 288 288 288 288 288 287 287 287 286 286
305 304 304 304 303 302 301 301 300 299 298 298 297 297 296 295 294 293 292 292 292 291 291 290 290 289 289 288 288 287 287 287 288 288 288 288 287 287 287 287 286 286
303 303 303 303 302 302 301 300 299 298 297 297 297 296 296 295 294 293 292 291 291 291 291 290 289 289 288 288 287 287 287 287 287 288 288 287 287 287 287 287 287 287
302 302 302 302 301 300 300 299 298 298 297 297 296 296 295 294 293 292 292 291 291 291 290 290 289 289 288 287 287 287 287 287 287 287 287 287 287 287 287 287 287 287
302 302 301 301 300 299 298 298 297 297 296 296 296 295 295 294 293 292 292 291 291 291 290 290 289 288 287 287 287 286 286 287 287 287 287 287 287 287 288 288 287 286
302 301 301 300 299 298 298 297 297 296 296 296 295 294 294 293 292 292 292 291 291 291 290 289 288 288 287 286 286 286 286 286 286 286 287 287 287 288 288 287 286 285
301 301 300 299 299 298 298 297 297 296 295 295 294 294 293 293 292 292 291 291 291 291 290 289 288 287 287 286 286 286 286 286 286 286 287 287 288 288 287 286 285 284
300 300 299 299 299 299 298 297 296 296 295 295 294 294 293 293 292 291 291 291 290 290 290 289 288 287 286 286 286 286 286 286 286 286 287 287 287 287 286 284 284 283
298 298 298 298 298 298 297 296 296 295 295 294 294 293 293 292 291 291 290 290 290 290 289 288 287 286 286 286 286 285 285 285 286 286 286 286 286 286 284 284 283 283
297 297 296 296 296 295 295 294 294 294 294 294 293 292 292 291 290 290 290 289 289 289 288 287 286 286 285 285 285 285 285 286 287 287 286 286 285 284 283 283 283 283
Wind_Speed
42 42 42 42 42 40 39 38 40 41 42 42 43 42 41 40 39 39 40 40 39 38 37 36 35 33 32 30 29 27 25 24 22 20 20 21 22 23 22 21 20 20
42 42 42 42 42 42 40 37 37 39 40 40 40 40 40 39 38 39 40 40 40 39 38 37 36 34 33 31 30 28 26 25 23 22 22 22 23 24 23 22 21 21
43 43 42 41 40 41 41 39 37 37 38 39 39 39 39 39 39 39 40 40 40 39 39 38 37 35 34 32 31 29 28 26 25 24 23 24 24 24 23 22 21 21
43 43 43 42 41 42 44 43 40 37 36 37 37 39 39 39 39 39 40 41 41 40 40 39 38 37 35 34 32 31 29 28 26 26 25 25 25 25 24 23 22 21
44 44 44 44 44 44 45 45 43 40 37 34 35 37 39 40 40 40 41 42 42 41 41 40 39 38 37 35 34 32 31 29 28 27 26 25 25 25 24 23 22 20
45 46 46 46 46 47 46 45 44 45 43 39 36 36 38 40 41 41 41 42 42 42 42 41 40 39 38 37 35 34 32 31 29 28 27 26 26 26 25 23 22 20
48 47 48 49 48 49 48 46 46 47 47 46 43 40 39 39 40 41 42 42 43 43 43 42 41 40 39 38 37 35 33 32 30 29 28 27 26 26 25 23 22 20
50 50 50 51 51 51 50 48 48 49 49 50 48 45 43 41 40 41 42 43 44 44 44 43 42 41 40 39 37 36 35 33 31 30 29 28 27 26 24 23 22 20
54 54 53 54 54 53 51 50 50 50 51 52 50 48 46 45 44 43 42 43 44 45 44 44 43 42 41 40 38 37 35 34 32 30 29 28 27 26 24 23 22 21
57 56 56 57 56 55 53 53 53 53 53 53 52 51 48 47 47 46 45 44 45 45 45 45 44 43 42 41 39 37 36 34 32 31 29 28 27 26 24 23 22 21
58 58 59 59 58 57 56 55 56 55 54 53 53 53 51 48 48 48 48 47 46 46 46 46 45 44 43 41 39 38 36 35 33 32 30 29 27 26 24 23 22 21
59 59 59 59 59 59 59 58 58 57 56 54 54 53 53 51 49 49 49 48 47 46 46 46 45 44 43 41 39 38 37 36 34 32 31 29 27 25 24 23 22 21
59 58 56 56 57 59 60 60 60 59 57 56 54 54 54 53 52 50 49 48 48 47 46 46 45 45 43 41 40 39 38 37 35 33 31 29 27 25 24 23 22 21
57 55 54 54 56 58 60 61 61 60 58 56 55 55 54 54 54 52 50 48 47 47 46 46 46 45 44 42 41 40 39 37 35 33 31 29 27 25 24 23 22 22
54 54 53 53 55 56 58 59 60 59 58 57 56 55 54 54 53 52 50 48 47 47 47 47 47 46 44 43 42 41 40 38 35 33 31 28 27 25 24 23 23 22
53 54 53 53 53 54 55 57 58 59 58 57 56 55 54 54 53 53 51 49 47 48 48 49 48 47 45 43 42 41 39 37 35 33 30 28 27 25 25 23 23 22
53 54 53 52 51 51 53 54 56 57 57 56 55 54 53 53 53 53 52 50 49 48 49 49 49 47 45 43 42 40 38 36 34 32 29 28 27 26 24 23 23 22
52 53 52 51 50 50 51 52 54 55 56 56 55 54 53 53 53 53 52 51 50 49 49 50 48 47 45 44 43 41 39 36 33 31 29 28 27 25 24 24 23 22
51 50 50 50 49 48 49 51 52 54 54 55 54 53 53 53 53 53 52 52 51 50 50 49 48 46 45 44 43 41 38 36 33 31 29 28 27 26 25 24 23 22
48 48 48 48 48 47 49 50 51 52 53 53 53 52 53 53 53 53 52 52 51 50 49 49 47 46 45 45 43 40 38 35 33 31 30 29 28 26 25 24 23 24
45 46 46 47 46 47 48 49 50 51 51 52 52 52 52 52 52 52 52 51 51 49 49 49 47 46 45 44 42 40 38 35 33 32 31 29 28 27 26 25 24 24
44 45 45 45 46 47 48 48 49 49 50 51 51 50 50 50 51 51 51 50 50 49 49 49 47 46 46 44 42 39 38 36 35 33 31 29 28 27 26 24 23 24
43 44 44 45 46 46 47 47 48 48 49 49 49 49 49 50 50 50 49 49 48 49 49 49 47 47 46 45 42 39 39 38 35 33 31 30 28 26 25 23 23 24
41 42 43 44 45 45 46 46 47 47 48 47 47 47 47 48 48 48 48 48 48 48 48 47 47 47 47 45 42 40 39 38 34 32 31 29 27 25 24 22 22 23
39 41 42 44 44 45 45 45 45 45 45 45 45 45 45 46 46 47 47 47 47 47 47 46 47 47 46 44 42 40 39 37 33 31 30 28 26 25 23 22 22 23
36 38 41 42 43 43 43 43 43 43 44 43 43 43 44 45 45 46 46 46 46 46 46 46 47 47 47 45 42 40 39 37 33 32 30 28 26 24 22 22 23 22
Wind_Direction
236 236 237 238 239 240 243 244 245 244 244 244 244 243 242 240 238 236 235 234 233 233 232 232 232 232 234 236 237 239 242 244 248 253 259 266 270 272 274 281 287 289
235 235 235 237 238 239 240 243 245 246 246 246 246 245 243 241 239 237 236 236 235 234 233 231 232 233 234 235 237 239 240 243 246 250 257 262 266 269 272 277 283 285
234 234 234 234 235 237 238 240 242 245 246 246 246 245 243 240 239 237 237 236 235 234 233 231 232 233 234 235 236 238 240 242 245 248 254 258 262 265 268 273 279 282
233 234 234 234 235 237 238 239 240 241 244 246 245 244 242 240 238 237 236 235 234 233 232 231 232 233 234 235 236 237 239 240 242 246 250 255 259 262 264 270 275 279
233 235 236 236 236 237 238 239 240 240 241 243 245 243 241 239 236 234 233 233 232 232 230 230 231 232 233 234 235 236 238 239 241 243 247 252 255 258 261 267 272 276
235 236 237 238 237 237 237 238 240 241 241 241 241 242 241 238 235 232 231 231 230 230 229 229 230 231 232 233 234 235 237 238 240 242 246 249 252 256 260 265 270 274
235 236 237 238 238 237 237 237 239 241 242 241 240 240 239 237 234 232 229 229 230 230 230 230 231 231 231 232 232 234 235 236 238 241 244 247 251 255 259 264 269 271
238 237 237 238 239 238 238 237 238 240 241 241 241 240 239 237 234 231 229 229 229 230 230 231 231 232 232 232 232 234 235 236 238 240 242 246 250 254 258 263 266 268
240 239 239 239 239 239 239 238 239 240 240 241 241 241 239 238 235 232 230 229 229 229 230 231 231 231 231 232 232 234 235 236 238 240 242 245 249 253 257 261 264 266
242 241 241 241 241 241 240 240 240 240 240 241 241 241 239 238 236 234 232 230 229 229 230 230 230 230 230 231 232 233 234 235 237 239 242 245 248 251 255 259 263 265
244 243 242 242 243 243 242 242 241 240 241 241 240 240 239 237 235 233 232 231 230 230 230 229 229 229 230 231 232 233 233 235 236 238 241 243 246 249 253 258 261 263
246 245 245 245 246 246 244 243 242 241 241 241 241 241 239 237 235 234 233 232 231 231 231 230 229 229 230 231 232 233 233 234 235 237 239 242 245 248 252 256 259 261
247 247 249 249 248 248 246 244 243 243 242 241 241 241 240 238 236 234 233 233 232 232 231 230 229 230 230 231 231 232 233 234 234 235 238 241 244 247 251 255 258 259
251 250 251 250 249 248 246 244 243 242 242 241 241 240 240 239 238 236 233 232 232 232 231 230 229 229 230 230 230 231 231 232 234 235 237 240 242 245 249 253 255 257
254 251 250 249 247 246 245 245 243 242 241 241 240 240 240 239 238 237 234 232 231 230 230 229 229 229 230 230 230 231 231 232 233 235 237 239 241 244 247 249 253 256
254 250 248 247 246 246 245 245 244 242 240 240 239 240 239 238 236 235 234 233 231 230 230 229 229 229 229 230 230 231 232 232 233 234 236 238 240 242 244 248 251 254
251 248 246 247 247 246 245 244 243 242 240 239 238 238 238 237 235 234 233 232 231 231 231 230 229 229 229 229 229 229 231 232 233 235 236 237 239 241 243 247 250 255
249 247 246 246 246 246 245 243 242 241 239 237 237 237 237 236 234 233 232 232 230 230 231 231 230 229 229 228 228 228 229 230 232 234 236 237 239 240 243 246 251 258
249 246 246 246 245 245 244 242 241 239 238 237 236 236 236 235 233 232 231 231 230 230 230 230 230 229 228 227 227 228 229 230 231 233 235 237 237 239 243 247 253 260
250 248 248 247 245 244 242 240 240 239 237 236 235 235 234 234 233 231 230 230 230 230 231 230 229 228 227 227 226 227 229 230 231 233 234 234 235 238 243 248 255 261
253 251 249 247 245 243 241 240 239 238 236 235 234 234 235 234 233 231 230 230 230 230 231 230 228 226 226 226 226 227 229 230 231 232 232 232 235 239 244 250 256 261
256 252 249 247 244 242 241 239 238 236 235 234 233 233 233 233 232 231 231 230 230 230 230 229 227 225 224 225 225 227 229 230 229 230 231 232 236 241 246 253 259 262
258 253 250 247 245 243 242 240 239 236 234 234 233 232 232 231 231 231 231 231 231 231 230 228 225 223 223 224 224 225 228 230 229 228 230 233 238 243 249 254 260 263
258 254 251 248 247 246 244 241 238 236 235 235 234 234 234 233 233 232 231 231 231 231 231 229 225 223 223 223 223 224 228 230 230 229 231 235 239 243 249 254 259 264
259 255 252 250 248 246 243 240 238 236 236 236 235 235 235 235 234 232 231 231 231 231 231 228 225 223 222 222 222 223 226 227 228 230 233 236 240 243 248 254 258 262
264 258 253 250 248 245 242 240 239 238 237 236 235 234 234 234 233 232 232 232 231 230 229 226 223 221 221 221 220 221 224 226 227 231 233 236 240 243 247 253 258 261